Powrót do katalogu

OPS 4682 DEB

AktywnyPO
NORAD 18269·DEBRIS·🇺🇸 United States

Wystrzelony Apr 3, 1965 z Vandenberg Space Force Base

Loading…

Następne Przeloty (najbliższe 24 godziny)

TLE

ŚwieżeSource: Space-Track

Epoka: Sep 13, 2026, 01:48 UTC

1 18269U 65027Y   26256.07562866  .00000188  00000-0  63613-3 0  9996
2 18269  90.2669  15.6766 0028923 311.4661  48.3975 12.95973721581272

Śledź OPS 4682 DEB w czasie rzeczywistym z AllMySat

Download on the App Store